Location: *
(52.0500°S, 168.2167°W)
Time: 12:49:11
(UTC+00:00)

Daily predictions for brighter satellites

Satellite Brightness Start Highest point End
(mag) Time Altitude Azimuth Time Altitude Azimuth Time Altitude Azimuth
Cosmos 1980 Rocket 4.2 12:54:01 24° SE 12:54:01 24° SE 12:56:17 10° SE
SL-16 R/B 4.2 12:54:53 10° SE 12:59:22 27° ESE 12:59:22 27° ESE
NOSS 3-4 (A) 4.5 13:27:53 52° SSW 13:27:53 52° SSW 13:34:33 10° SE
NOSS 3-4 (C) 4.5 13:28:00 52° SSW 13:28:00 52° SSW 13:34:39 10° SE
CZ-2C R/B 4.4 13:35:11 25° SSE 13:35:11 25° SSE 13:37:37 10° S
COSMOS 2455 4.3 13:42:25 29° S 13:42:25 29° S 13:46:36 10° SSE
Cosmos 2034 Rocket 4.5 13:53:48 57° ESE 13:53:48 57° ESE 13:59:33 10° SSE
USA 215 3.5 13:48:30 10° ENE 13:53:51 61° ENE 13:53:51 61° ENE
ATLAS 2AS CENTAUR R/B 3.5 13:57:33 36° SSW 13:57:33 36° SSW 14:03:06 10° SE
NOSS 3-1 (C) 3.9 13:59:30 57° SSE 14:00:02 59° SE 14:05:50 10° ENE
Cosmos 1697 Rocket 4.2 14:07:55 28° SSW 14:07:55 28° SSW 14:11:28 10° SSE
ISS -0.4 14:21:39 12° E 14:21:39 12° E 14:21:58 10° E
SL-16 R/B 2.4 14:22:41 67° SE 14:22:41 67° SE 14:27:38 10° SSE
ATLAS CENTAUR R/B 3.2 14:24:09 30° SE 14:24:09 30° SE 14:26:27 10° SE
Cosmos 2360 Rocket 2.8 14:26:57 47° NE 14:27:31 48° ENE 14:33:01 10° SE
Cosmos 1538 Rocket 4.4 14:29:27 62° SSE 14:29:27 62° SSE 14:33:56 10° SSE
Cosmos 2322 Rocket 2.2 14:31:39 76° SE 14:31:39 76° SE 14:36:56 10° SSE
Cosmos 1733 Rocket 4.5 14:33:33 33° S 14:33:33 33° S 14:36:06 10° S
Cosmos 1980 Rocket 3.3 14:35:48 33° SSW 14:35:48 33° SSW 14:40:14 10° SSE
Cosmos 2333 Rocket 4.1 14:34:41 12° NNE 14:38:44 25° ENE 14:43:22 10° SE
ERS-2 4.0 14:39:57 10° SSE 14:42:02 30° SE 14:42:02 30° SE
SL-16 R/B 2.5 14:38:05 10° SSE 14:44:22 66° WSW 14:44:28 66° WSW
CZ-4C R/B 2.9 14:43:50 54° NNW 14:45:42 76° NE 14:52:28 10° SE
Cosmos 1464 Rocket 4.4 14:50:19 47° SW 14:50:19 47° SW 14:55:55 10° S
STARLINK-1119 4.4 14:52:50 51° ESE 14:52:50 51° ESE 14:56:06 10° E
SL-08 R/B 3.6 14:47:43 10° SSE 14:52:27 64° ENE 14:52:58 59° NE
Cosmos 2278 Rocket 3.4 14:48:24 10° SSW 14:53:49 41° SE 14:59:11 10° ENE
Cosmos 1371 Rocket 4.0 14:49:37 10° SSW 14:54:58 85° ESE 15:00:19 10° NNE
STARLINK-1114 4.2 14:57:37 57° ESE 14:57:37 57° ESE 15:01:05 10° E
Cosmos 1624 Rocket 4.0 14:52:56 10° SSW 14:58:18 81° ESE 15:03:34 10° NNE
Cosmos 1844 3.5 14:52:57 10° SSW 14:58:44 74° WNW 15:04:23 10° NNE
Intercosmos 24 4.3 14:59:43 59° ESE 14:59:43 59° ESE 15:03:08 10° SSE
Cosmos 1092 Rocket 3.9 14:55:04 10° SSW 15:01:20 63° W 15:02:16 57° NW
Cosmos 1536 4.4 15:03:48 27° S 15:03:48 27° S 15:05:53 10° S
STARLINK-1130 (DARKSAT) 4.0 15:02:25 64° ESE 15:02:25 64° ESE 15:06:06 10° E
Meteor 1-11 Rocket 3.8 15:02:24 61° W 15:02:31 61° WSW 15:08:16 10° S
STARLINK-1083 4.4 15:05:42 45° NE 15:05:42 45° NE 15:08:45 10° ENE
Cosmos 1975 Rocket 3.4 15:01:46 10° S 15:06:12 65° ESE 15:10:33 10° NNE
STARLINK-1084 3.8 15:07:11 71° ESE 15:07:11 71° ESE 15:11:04 10° E
Meteor 2-13 Rocket 4.4 15:02:24 10° S 15:08:39 90° NW 15:14:48 10° N
Okean O Rocket 3.5 15:04:51 10° NE 15:08:51 32° ESE 15:12:54 10° S
H-2A R/B 2.6 15:04:17 10° SSE 15:08:53 63° ENE 15:10:26 39° NNE
Cosmos 2112 Rocket 4.3 15:07:06 38° N 15:09:08 66° ENE 15:14:33 10° SSE
STARLINK-1125 4.2 15:10:29 48° NE 15:10:29 48° NE 15:13:42 10° ENE
ALOS 2.4 15:05:27 10° NNE 15:10:10 78° ESE 15:14:57 10° SSW
CZ-2C R/B 4.3 15:14:34 17° SW 15:14:34 17° SW 15:15:55 10° SSW
CZ-4B R/B 3.6 15:12:39 45° SSW 15:12:39 45° SSW 15:15:41 10° SSW
STARLINK-1098 3.7 15:11:59 78° SE 15:11:59 78° SE 15:16:03 10° E
Cosmos 405 Rocket 3.8 15:13:45 38° SSW 15:13:45 38° SSW 15:16:35 10° S
USA 229 DEB 3.5 15:08:19 21° SW 15:13:07 72° NW 15:19:41 10° NNE
USA 229 3.5 15:08:22 21° SW 15:13:14 72° NW 15:19:48 10° NNE
Cosmos 158 Rocket 4.2 15:12:19 37° N 15:14:07 63° ENE 15:19:02 10° SSE
STARLINK-1109 4.1 15:15:17 51° NNE 15:15:17 51° NNE 15:18:40 10° ENE
Cosmos 2026 Rocket 3.9 15:08:08 10° SSW 15:14:32 68° W 15:20:47 10° N
STARLINK-1123 3.6 15:16:47 81° S 15:16:50 81° S 15:21:04 10° E
STARLINK-1091 4.0 15:20:02 53° NNE 15:20:02 53° NNE 15:23:35 10° NE
Cosmos 1420 Rocket 4.4 15:14:25 10° SSW 15:19:45 65° ESE 15:25:03 10° NE
Meteor 1-28 Rocket 3.2 15:17:03 10° SSE 15:20:53 80° ENE 15:21:00 78° NE
ERBS 2.9 15:21:47 53° ENE 15:21:47 53° ENE 15:24:41 10° ESE
STARLINK-1097 3.5 15:21:32 77° SW 15:21:47 83° S 15:26:01 10° E
NOSS 3-1 (A) 3.3 15:17:03 14° SW 15:22:54 83° NW 15:28:38 10° NE
Cosmos 1634 Rocket 3.9 15:20:26 29° NNW 15:23:50 75° WSW 15:30:16 10° S
STARLINK-1072 3.9 15:24:52 54° N 15:24:52 54° N 15:28:35 10° NE
Cosmos 1428 Rocket 4.4 15:19:16 10° SSW 15:25:26 62° W 15:31:29 10° N
STARLINK-1099 3.5 15:26:19 70° WSW 15:26:46 84° SSE 15:31:00 10° E
Cosmos 2219 Rocket 3.0 15:22:06 14° N 15:26:48 50° ENE 15:32:18 10° SE
STARLINK-1096 3.9 15:29:41 53° NNW 15:29:41 53° NNW 15:33:33 10° NE
Cosmos 2056 Rocket 3.5 15:24:20 10° SSW 15:29:44 63° WNW 15:35:08 10° N
Cosmos 2266 Rocket 4.5 15:23:44 10° S 15:29:54 61° ESE 15:36:05 10° NNE
Okean 2 3.3 15:25:51 10° SSW 15:30:08 76° W 15:34:22 10° N
Cosmos 2237 4.2 15:29:37 43° WNW 15:31:31 68° SW 15:37:18 10° SSE
STARLINK-1104 3.6 15:31:06 63° WSW 15:31:46 86° SSE 15:36:00 10° E
Cosmos 1844 Rocket 4.2 15:35:41 19° NNW 15:35:41 19° NNW 15:37:25 10° N
STARLINK-1079 3.9 15:34:26 51° NNW 15:34:26 51° NNW 15:38:27 10° NE
STARLINK-1144 3.6 15:35:54 57° WSW 15:36:45 87° SSE 15:40:59 10° ENE
USA 215 3.6 15:32:19 10° NNE 15:38:32 43° NW 15:41:12 30° W
PAYLOAD B 4.3 15:33:30 10° NNE 15:39:09 86° ESE 15:44:53 10° SSW
STARLINK-1116 3.9 15:39:13 48° NW 15:39:20 48° NNW 15:43:24 10° NE
Cosmos 1975 2.9 15:37:18 22° N 15:39:59 81° E 15:44:12 10° SSE
Meteor 1-21 4.2 15:35:33 10° SSW 15:41:18 89° ESE 15:47:03 10° NNE
Cosmos 1782 Rocket 3.5 15:39:19 30° NNW 15:41:33 77° W 15:46:07 10° S
STARLINK-1103 3.6 15:40:40 51° WSW 15:41:43 89° SSE 15:45:57 10° ENE
Cosmos 2084 3.8 15:40:12 33° NNW 15:41:56 61° NE 15:46:11 10° SE
Cosmos 2142 Rocket 4.4 15:36:36 14° NNW 15:42:00 73° WSW 15:48:15 10° S
Cosmos 2322 3.7 15:38:38 26° NNW 15:42:03 89° WSW 15:47:52 10° SSE
COSMOS 2428 3.2 15:36:40 11° NNW 15:42:05 60° ENE 15:47:47 10° SE
NOSS 2-3 (C) 4.4 15:34:55 10° SW 15:42:26 75° NW 15:48:06 10° NE
Cosmos 1655 Rocket 4.0 15:36:19 10° S 15:42:49 85° W 15:49:16 10° N
STARLINK-1233 3.6 15:45:05 43° N 15:45:22 44° NNE 15:48:26 10° E
STARLINK-1212 3.6 15:45:31 43° N 15:45:49 45° NNE 15:48:54 10° E
Cosmos 1242 Rocket 4.5 15:42:46 10° S 15:46:12 32° ESE 15:49:34 10° NE
STARLINK-1105 3.6 15:45:58 43° N 15:46:17 45° NNE 15:49:21 10° E
Cosmos 2333 4.2 15:42:35 22° NNW 15:46:24 90° NNW 15:52:18 10° SSE
STARLINK-1206 3.6 15:46:21 43° N 15:46:42 45° NNE 15:49:47 10° E
STARLINK-1101 3.6 15:45:29 45° WSW 15:46:44 88° N 15:50:58 10° ENE
STARLINK-1247 3.5 15:46:48 43° N 15:47:09 45° NNE 15:50:15 10° E
STARLINK-1227 3.5 15:47:15 43° N 15:47:37 46° NNE 15:50:42 10° E
STARLINK-1218 3.5 15:47:40 43° N 15:48:03 46° NNE 15:51:10 10° E
STARLINK-1226 3.5 15:48:05 43° N 15:48:30 46° NNE 15:51:35 10° E
Cosmos 1025 Rocket 3.6 15:44:07 10° S 15:48:33 60° ESE 15:52:56 10° NNE
STARLINK-1234 3.1 15:48:33 53° N 15:48:47 56° NNE 15:51:52 10° ESE
STARLINK-1254 3.5 15:48:34 43° N 15:48:58 46° NNE 15:52:04 10° E
STARLINK-1094 4.0 15:48:47 41° NW 15:49:16 43° NNW 15:53:15 10° NE
STARLINK-1215 3.5 15:48:58 43° N 15:49:24 47° NNE 15:52:31 10° E
ATLAS 2AS CENTAUR R/B 3.9 15:44:58 13° SW 15:49:45 30° S 15:55:30 10° ESE
Cosmos 923 Rocket 4.4 15:48:04 35° WNW 15:49:48 47° WSW 15:55:00 10° SSE
STARLINK-1231 3.5 15:49:24 43° N 15:49:51 47° NNE 15:52:58 10° E
STARLINK-1209 3.0 15:49:49 56° N 15:50:01 58° NNE 15:53:03 10° ESE
NOSS 3-1 (C) 3.7 15:47:03 22° WSW 15:50:41 41° WNW 15:55:55 10° N
STARLINK-1232 3.5 15:50:16 43° N 15:50:45 48° NNE 15:53:52 10° E
STARLINK-1217 3.5 15:50:42 43° N 15:51:12 48° NNE 15:54:19 10° E
STARLINK-1208 3.5 15:51:10 43° N 15:51:41 48° NNE 15:54:46 10° E
STARLINK-1102 3.6 15:50:15 41° WSW 15:51:42 86° N 15:55:55 10° ENE
STARLINK-1229 3.5 15:51:33 43° N 15:52:05 48° NNE 15:55:12 10° E
STARLINK-1271 3.5 15:52:00 43° N 15:52:33 49° NNE 15:55:40 10° E
STARLINK-1270 3.5 15:52:26 42° NNW 15:53:00 49° NNE 15:56:08 10° E
STARLINK-1154 3.5 15:52:51 42° NNW 15:53:26 49° NNE 15:56:34 10° E
STARLINK-1117 4.1 15:53:34 38° NW 15:54:13 41° NNW 15:58:10 10° NE
STARLINK-1197 3.5 15:53:43 42° NNW 15:54:20 50° NNE 15:57:28 10° E
Cosmos 1743 3.1 15:54:10 40° W 15:54:26 41° WSW 15:58:12 10° S
STARLINK-1189 3.5 15:54:10 42° NNW 15:54:48 50° NNE 15:57:55 10° E
STARLINK-1198 3.5 15:54:35 42° NNW 15:55:14 51° NNE 15:58:22 10° E
ISS -3.8 15:54:38 53° W 15:55:19 74° N 15:58:46 10° ENE
METEOR-M 4.3 15:50:27 10° N 15:55:40 49° W 16:00:58 10° SSW
STARLINK-1188 3.4 15:55:02 42° NNW 15:55:42 51° NNE 15:58:50 10° E
Helios 1A Rocket 4.0 15:51:46 10° NE 15:55:46 47° ESE 15:59:51 10° S
STARLINK-1235 3.2 15:55:45 48° NNW 15:56:20 59° NNE 15:59:29 10° ESE
STARLINK-1111 3.6 15:55:02 37° W 15:56:40 84° NNW 16:00:54 10° ENE
STARLINK-1187 3.3 15:56:10 45° NNW 15:56:47 55° NNE 15:59:55 10° ESE
SAR-Lupe-4 3.5 15:53:24 10° SSE 15:57:07 82° WSW 15:59:41 19° NNW
Cosmos 1544 3.0 15:54:22 15° NNW 15:57:25 86° W 16:01:15 10° S
STARLINK-1199 3.4 15:56:58 41° NNW 15:57:41 52° NNE 16:00:49 10° ESE
STARLINK-1191 3.4 15:57:23 41° NNW 15:58:08 52° NNE 16:01:16 10° ESE
STARLINK-1210 3.4 15:57:50 40° NNW 15:58:36 53° NNE 16:01:43 10° ESE
STARLINK-1221 3.4 15:58:15 40° NNW 15:59:00 53° NNE 16:02:08 10° ESE
STARLINK-1078 4.2 15:58:21 35° WNW 15:59:10 38° NNW 16:03:05 10° NE
STARLINK-1219 3.4 15:58:42 40° NNW 15:59:30 53° NNE 16:02:37 10° ESE
STARLINK-1222 3.4 15:59:07 40° NNW 15:59:55 53° NNE 16:03:03 10° ESE
STARLINK-1211 3.4 15:59:34 39° NNW 16:00:23 54° NNE 16:03:31 10° ESE
STARLINK-1214 3.3 16:00:00 39° NNW 16:00:50 54° NNE 16:03:58 10° ESE
Cosmos 2292 Rocket 3.6 15:57:20 10° S 16:01:14 87° E 16:06:21 10° N
STARLINK-1245 3.3 16:00:23 39° NNW 16:01:15 55° NNE 16:04:25 10° ESE
ATLAS CENTAUR R/B 2.7 16:00:21 23° SW 16:01:33 27° SSW 16:05:20 10° SSE
STARLINK-1073 3.6 15:59:48 33° W 16:01:38 81° NNW 16:05:52 10° ENE
STARLINK-1238 3.3 16:00:52 39° NNW 16:01:44 55° NNE 16:04:52 10° ESE
FENGYUN 3A 4.0 15:56:37 10° NNW 16:01:45 42° W 16:06:58 10° SSW
Landsat 5 3.5 15:57:26 10° S 16:01:45 59° WSW 16:04:33 20° NW
SL-8 R/B 4.0 16:00:08 30° WNW 16:02:22 58° N 16:07:10 10° ENE
STARLINK-1205 3.3 16:01:42 38° NNW 16:02:37 56° NNE 16:05:46 10° ESE
STARLINK-1204 3.3 16:02:08 38° NW 16:03:04 56° NNE 16:06:14 10° ESE
Cosmos 1536 Rocket 3.7 15:59:23 10° S 16:03:56 78° E 16:08:27 10° NNE
STARLINK-1108 4.3 16:03:09 32° WNW 16:04:08 36° NNW 16:08:00 10° NNE
Cosmos 1452 Rocket 3.4 16:00:00 10° SSW 16:05:22 80° WNW 16:10:40 10° NNE
CZ-4C R/B 3.6 16:02:53 10° S 16:06:19 37° WSW 16:07:00 34° W
STARLINK-1121 3.6 16:04:35 30° W 16:06:38 78° NNW 16:10:50 10° ENE
SL-16 R/B 3.4 16:04:34 21° WSW 16:06:42 26° SW 16:11:30 10° SSE
Cosmos 1842 3.6 16:03:37 10° SSW 16:07:23 42° W 16:11:06 10° NNW
Cosmos 1680 Rocket 3.9 16:04:48 25° WNW 16:07:31 44° WSW 16:12:43 10° SSE
NOAA 6 4.0 16:03:25 10° N 16:08:36 69° WNW 16:13:53 10° SSW
STARLINK-1071 4.4 16:07:55 29° WNW 16:09:04 34° NW 16:12:52 10° NNE
Cosmos 1689 Rocket 3.5 16:07:38 10° SSE 16:10:36 41° E 16:13:31 10° N
STARLINK-1106 3.6 16:09:22 27° W 16:11:35 76° NNW 16:15:48 10° ENE
Cosmos 2360 Rocket 2.8 16:08:45 24° W 16:11:40 40° SW 16:17:05 10° SSE
Cosmos 371 Rocket 3.3 16:07:38 10° SSW 16:12:37 89° WNW 16:17:32 10° NNE
Cosmos 2279 Rocket 4.1 16:07:11 10° NNW 16:13:21 54° WSW 16:19:36 10° S
PSLV R/B 4.4 16:09:52 10° NNW 16:13:22 32° W 16:16:51 10° SSW
STARLINK-1138 4.4 16:10:34 18° NW 16:13:24 46° NNE 16:17:28 10° ESE
CZ-4B DEB 4.4 16:08:55 10° N 16:14:20 49° W 16:19:49 10° SSW
SAR-Lupe-1 4.1 16:10:50 10° S 16:14:28 58° WSW 16:17:44 12° NNW
Cosmos 2322 Rocket 3.4 16:13:29 19° WSW 16:15:58 26° SW 16:20:44 10° SSE
YAOGAN 6 4.4 16:13:10 10° NE 16:16:26 33° ESE 16:19:42 10° S
STARLINK-1112 3.6 16:14:09 25° W 16:16:34 73° NNW 16:20:46 10° ENE
ERS-2 3.9 16:14:23 10° SSW 16:16:38 17° SW 16:16:38 17° SW
STARLINK-1201 3.2 16:15:25 28° NW 16:16:59 65° NNE 16:20:17 10° ESE
STARLINK-1143 4.4 16:15:20 17° NW 16:18:21 48° NNE 16:22:26 10° ESE
Meteor 2-19 Rocket 4.4 16:14:21 10° SSW 16:20:30 71° W 16:26:33 10° N
Cosmos 1980 Rocket 4.3 16:17:47 10° SW 16:20:49 14° SSW 16:23:51 10° SSE
Abrixas rocket 4.5 16:18:50 10° NNW 16:20:52 17° NNE 16:22:53 10° ENE
STARLINK-1128 3.7 16:18:56 22° W 16:21:33 70° NNW 16:25:45 10° ENE
Cosmos 2333 Rocket 2.2 16:16:45 10° NW 16:22:30 71° SW 16:28:21 10° SSE
STARLINK-1241 4.3 16:20:10 16° NW 16:23:21 52° NNE 16:27:28 10° ESE
Radarsat Rocket 4.2 16:17:32 10° N 16:23:48 66° WNW 16:30:58 10° SSW
STARLINK-1113 3.7 16:23:44 20° W 16:26:32 67° NNW 16:30:43 10° ENE
SL-16 R/B 4.1 16:22:51 10° S 16:26:54 18° SW 16:29:33 14° WSW
Blok-L 4.4 16:25:06 12° SW 16:27:53 75° NW 16:36:25 10° NE
STARLINK-1239 4.2 16:24:55 15° NW 16:28:17 54° NNE 16:32:25 10° ESE
Cosmos 1356 3.6 16:27:42 10° N 16:31:11 75° E 16:34:44 10° SSE
STARLINK-1119 3.7 16:28:30 18° W 16:31:28 64° NNW 16:35:39 10° ENE
Cosmos 2237 Rocket 2.8 16:26:44 10° NNW 16:32:21 60° ENE 16:38:01 10° SE
CZ-4B R/B 1.5 16:29:06 10° S 16:32:21 52° WSW 16:35:38 10° NNW
STARLINK-1240 4.1 16:29:43 14° NW 16:33:15 57° NNE 16:37:25 10° ESE
CZ-4C R/B 3.2 16:29:02 16° W 16:34:47 45° SSW 16:40:54 10° SE
Cosmos 2297 4.2 16:29:44 10° SSW 16:35:31 65° SE 16:41:12 10° NE
STARLINK-1114 3.8 16:33:16 17° W 16:36:26 61° NNW 16:40:36 10° NE
Cosmos 1300 Rocket 3.6 16:32:29 10° NNW 16:36:54 62° WSW 16:41:24 10° S
Cosmos 2278 Rocket 2.5 16:32:34 10° SW 16:38:03 47° WNW 16:43:27 10° N
STARLINK-1216 4.1 16:34:31 13° NW 16:38:15 60° NNE 16:42:25 10° ESE
Sich 1 Rocket 4.3 16:35:08 10° NW 16:39:18 34° WSW 16:43:32 10° S
Okean 2 Rocket 3.4 16:35:53 10° NNW 16:40:18 49° WSW 16:44:46 10° S
Cosmos 2151 Rocket 3.6 16:36:45 10° NNW 16:41:14 66° WSW 16:45:49 10° S
STARLINK-1130 (DARKSAT) 3.8 16:38:05 15° WSW 16:41:26 58° NNW 16:45:34 10° NE
CZ-4B R/B 3.6 16:36:48 10° N 16:42:16 45° W 16:47:45 10° SSW
In-Cosmos 22 4.2 16:37:17 10° SSW 16:42:51 81° W 16:48:29 10° N
STARLINK-1237 4.0 16:39:17 12° WNW 16:43:12 63° NNE 16:47:24 10° ESE
Cosmos 332 Rocket 3.8 16:38:43 10° SSW 16:43:34 65° WNW 16:48:21 10° NNE
AQUARIUS 4.1 16:39:39 10° N 16:44:12 76° WNW 16:48:49 10° SSW
H-2A R/B 3.5 16:40:56 10° S 16:44:27 22° WSW 16:47:32 12° WNW
Okean O Rocket 2.2 16:40:56 10° NNW 16:45:08 38° W 16:49:24 10° SSW
STARLINK-1084 3.9 16:42:51 14° WSW 16:46:22 55° NNW 16:50:29 10° NE
STARLINK-1202 3.9 16:44:03 10° WNW 16:48:09 66° NNE 16:52:22 10° ESE
ALOS 3.7 16:45:09 10° NW 16:48:10 17° W 16:51:13 10° SW
H-2A R/B 3.1 16:46:51 10° N 16:50:39 44° W 16:54:28 10° SSW
STARLINK-1098 4.0 16:47:38 12° WSW 16:51:21 52° NNW 16:55:27 10° NE
Cosmos 1674 3.3 16:48:00 10° S 16:51:56 65° ESE 16:55:49 10° NNE
Cosmos 1943 Rocket 3.4 16:49:03 10° SSW 16:54:33 45° SE 16:59:57 10° ENE
STARLINK-1203 3.9 16:50:58 10° WNW 16:55:13 74° NNE 16:59:31 10° ESE
Cosmos 1707 3.3 16:51:57 10° SSW 16:55:36 35° W 16:59:10 10° NNW
SMAP 3.2 16:51:05 10° N 16:55:42 55° W 17:00:23 10° SSW
STARLINK-1123 4.0 16:52:27 11° WSW 16:56:20 49° NNW 17:00:25 10° NE
ERBS 3.0 16:54:45 12° W 16:57:44 42° SSW 17:01:03 10° ESE
STARLINK-1246 3.9 16:53:55 10° WNW 16:58:07 72° NNE 17:02:21 10° ESE
STARLINK-1228 2.6 16:56:18 12° W 16:58:53 76° S 17:01:45 10° E
STARLINK-67 2.5 16:56:50 12° W 16:59:11 69° S 17:01:49 10° E
Cosmos 2369 Rocket 3.6 16:54:14 10° SSW 16:59:35 39° SE 17:04:54 10° ENE
YAOGAN 1 4.1 16:56:06 10° NE 17:00:12 40° ESE 17:04:21 10° S
NOSS 0 Rocket 4.0 16:55:01 10° NW 17:01:15 79° SW 17:07:35 10° SSE
STARLINK-1097 4.1 16:57:11 10° WSW 17:01:15 47° NNW 17:05:18 10° NE
Aureole 3 Rocket 4.3 16:58:30 10° NNE 17:02:15 50° E 17:07:20 10° SSE
STARLINK-1224 3.8 16:58:52 10° WNW 17:03:05 75° NNE 17:07:19 10° ESE
Cosmos 1809 Rocket 4.5 16:58:00 10° SSW 17:04:15 71° W 17:10:23 10° N
Cosmos 1805 4.3 17:01:55 10° N 17:05:45 52° E 17:09:40 10° SSE
Cosmos 1892 Rocket 4.0 17:01:29 10° S 17:05:56 68° ESE 17:10:18 10° NNE
STARLINK-1099 4.2 17:02:11 10° WSW 17:06:13 44° NNW 17:10:14 10° NE
Cosmos 1271 Rocket 3.3 17:02:56 10° SSW 17:06:48 41° W 17:10:38 10° NNW
STARLINK-1225 3.8 17:03:51 10° WNW 17:08:05 78° NNE 17:12:19 10° ESE
Feng Yun 1-1 Rocket 4.5 17:04:15 10° N 17:10:05 61° WNW 17:16:04 10° SSW
NOAA 12 4.2 17:05:26 10° N 17:10:40 60° WNW 17:16:00 10° SSW
Cosmos 2219 Rocket 2.8 17:05:40 10° WNW 17:10:57 39° SW 17:16:18 10° SSE
STARLINK-1104 4.3 17:07:11 10° WSW 17:11:11 42° NNW 17:15:10 10° NE
SL-24 DEB 4.3 17:07:10 10° N 17:11:57 70° W 17:16:47 10° S
Envisat 3.2 17:07:38 10° N 17:12:39 54° W 17:17:44 10° SSW
PSLV R/B 4.0 17:08:31 10° SSE 17:12:46 74° WSW 17:17:00 10° NNW
STARLINK-1230 3.8 17:08:49 10° WNW 17:13:02 80° NNE 17:17:17 10° ESE
Cosmos 494 Rocket 4.4 17:08:07 10° NNW 17:13:21 72° ENE 17:18:36 10° SSE
CZ-4 R/B 2.1 17:11:09 10° NNE 17:15:23 66° ESE 17:19:41 10° S
STARLINK-1144 4.4 17:12:11 10° W 17:16:09 39° NNW 17:20:05 10° NE
